Regional Weather Roundup
Issued by NWS

Home | Current Version | Previous Version | Text Only | Print | Product List | Glossary Off
Versions: 1 2 3 4 5 6 7 8 9 10 11 12 13 14 15 16 17 18 19 20 21 22 23 24 25 26 27 28 29 30 31 32 33 34 35 36 37 38 39 40 41 42 43 44 45 46 47 48 49 50

000
ASUS43 KBIS 201820
RWRND

NORTH DAKOTA REGIONAL WEATHER ROUNDUP
NATIONAL WEATHER SERVICE BISMARCK ND
100 PM CDT SAT SEP 20 2014

NOTE: "FAIR" INDICATES FEW OR NO CLOUDS BELOW 12,000 FEET WITH NO
SIGNIFICANT WEATHER AND/OR OBSTRUCTIONS TO VISIBILITY.


NDZ001>003-009>011-017-201900-
NORTHWEST NORTH DAKOTA

CITY           SKY/WX    TMP DP  RH WIND       PRES   REMARKS
WILLISTON      MOSUNNY   70  38  31 NW25G38   30.04R
6HR MIN TEMP:  54; 6HR MAX TEMP:  71;

MINOT          LGT RAIN  67  46  47 W25G39    29.92R
MINOT AFB      SUNNY     66  50  55 NW26G38   29.90R
$$

NDZ018>021-031>035-040>046-201900-
SOUTHWEST NORTH DAKOTA

CITY           SKY/WX    TMP DP  RH WIND       PRES   REMARKS
BISMARCK       MOSUNNY   71  48  43 NW23G30   29.96R
6HR MIN TEMP:  50; 6HR MAX TEMP:  71;

DICKINSON      MOSUNNY   68  41  37 NW25G35   30.04R
GARRISON         N/A     69  47  45 NW25G40   29.95R
6HR MIN TEMP:  53; 6HR MAX TEMP:  69;

HETTINGER ARPT SUNNY     70  45  40 NW23G32   30.07R
$$

NDZ004>008-012>016-024-026-027-054-201900-
NORTHEAST NORTH DAKOTA

CITY           SKY/WX    TMP DP  RH WIND       PRES   REMARKS
GRAND FORKS    RAIN      57  55  94 NW12      29.75F FOG
GRND FRKS AFB  LGT RAIN  57  56  99 NW15G22   29.75F
DEVILS LAKE    CLOUDY    59  52  77 NW16      29.83R
$$

NDZ022-023-025-028>030-036>039-047>053-201900-
SOUTHEAST NORTH DAKOTA

CITY           SKY/WX    TMP DP  RH WIND       PRES   REMARKS
FARGO          MOSUNNY   70  58  65 SW9       29.77F
6HR MIN TEMP:  50; 6HR MAX TEMP:  71;

JAMESTOWN      CLOUDY    60  56  86 NW12      29.86R
$$




USA.gov is the U.S. government's official web portal to all federal, state and local government web resources and services.